Total_Precipitation_Accumulation
0.05 0.15 0.35 0.65 1.11 1.70 1.88 1.32 0.96 0.84 0.74 0.67 0.54 0.47 0.55 0.83 1.11 1.79 1.58 1.13 0.78 0.70 0.72 0.77 0.79 0.65 0.56 0.57 0.61 0.63 0.63 0.59 0.53 0.54 0.69 0.81 1.02 1.11 1.07 1.09 1.32 1.59 1.66 1.59 1.54 1.27 1.06 1.05 0.94
0.07 0.18 0.38 0.81 1.54 2.24 1.93 1.11 0.84 0.78 0.64 0.61 0.58 0.55 0.65 0.77 0.77 0.96 1.18 1.00 0.65 0.56 0.60 0.57 0.62 0.60 0.53 0.52 0.54 0.56 0.57 0.56 0.57 0.63 0.75 0.80 0.94 1.08 1.16 1.25 1.47 1.64 1.55 1.48 1.24 1.01 0.90 0.82 0.74
0.14 0.26 0.42 0.86 1.34 1.92 1.54 0.93 0.67 0.64 0.58 0.65 0.81 0.72 0.84 0.96 0.92 1.06 1.04 0.80 0.62 0.53 0.52 0.62 0.63 0.58 0.54 0.48 0.53 0.55 0.56 0.57 0.59 0.66 0.74 0.79 0.90 1.09 1.22 1.25 1.40 1.41 1.29 1.20 1.04 0.93 0.78 0.68 0.63
0.15 0.32 0.49 0.74 0.88 0.86 0.89 0.87 0.65 0.73 0.75 0.68 0.79 1.00 1.02 0.95 0.91 1.01 1.04 0.84 0.61 0.56 0.53 0.59 0.61 0.57 0.56 0.49 0.48 0.53 0.55 0.61 0.64 0.74 0.83 0.86 0.97 1.10 1.14 1.20 1.34 1.27 1.19 1.11 1.01 0.87 0.71 0.61 0.59
0.13 0.32 0.55 0.69 0.81 0.65 0.64 0.73 0.63 0.69 0.73 0.71 0.76 1.17 1.34 1.16 0.92 0.92 0.94 0.87 0.67 0.77 0.73 0.67 0.68 0.65 0.60 0.49 0.46 0.50 0.55 0.64 0.68 0.76 0.83 0.84 0.90 0.96 1.02 1.17 1.25 1.16 1.10 0.98 0.92 0.82 0.67 0.67 0.71
0.12 0.29 0.55 0.63 0.69 0.55 0.58 0.64 0.62 0.65 0.73 0.80 0.95 1.34 1.58 1.41 1.25 1.18 1.15 0.99 0.79 0.83 0.84 0.79 0.80 0.75 0.70 0.57 0.53 0.57 0.62 0.68 0.72 0.74 0.75 0.77 0.79 0.81 0.91 1.10 1.16 1.02 0.88 0.82 0.86 0.82 0.72 0.70 0.76
0.10 0.22 0.43 0.50 0.59 0.60 0.56 0.52 0.58 0.73 0.95 1.04 1.16 1.52 1.66 1.92 1.77 1.54 1.50 1.38 1.11 1.00 0.93 0.87 0.83 0.73 0.76 0.76 0.66 0.68 0.74 0.78 0.76 0.75 0.73 0.71 0.73 0.78 0.87 1.04 1.09 0.94 0.77 0.72 0.75 0.76 0.70 0.65 0.71
0.07 0.15 0.26 0.40 0.51 0.59 0.50 0.46 0.46 0.61 0.99 1.00 1.05 1.32 1.74 1.75 1.76 1.96 1.93 1.92 1.62 1.40 1.14 0.97 0.99 1.01 0.91 0.87 0.81 0.86 0.90 0.90 0.88 0.81 0.80 0.79 0.83 0.85 0.94 0.98 0.99 0.91 0.79 0.71 0.69 0.71 0.66 0.68 0.72
0.07 0.16 0.22 0.32 0.42 0.43 0.34 0.36 0.40 0.53 0.71 0.89 1.08 1.11 1.31 1.27 1.49 1.92 2.18 2.38 2.27 1.75 1.48 1.22 1.10 1.09 1.03 0.97 1.01 1.24 1.23 1.12 1.06 1.03 1.02 1.02 1.13 1.13 1.15 1.02 1.05 1.01 0.96 0.96 0.95 0.96 0.90 0.86 0.82
0.07 0.16 0.16 0.19 0.26 0.27 0.23 0.27 0.32 0.56 0.99 1.37 1.50 1.35 1.31 1.38 1.75 2.07 2.13 2.18 2.35 1.91 1.57 1.49 1.36 1.22 1.15 1.00 1.12 1.48 1.37 1.26 1.32 1.38 1.27 1.40 1.53 1.54 1.18 1.21 1.37 1.45 1.50 1.48 1.56 1.66 1.37 1.16 1.29
0.04 0.08 0.11 0.15 0.17 0.19 0.21 0.25 0.31 0.53 1.04 1.40 1.57 1.54 1.57 1.59 1.96 2.33 2.45 2.25 2.31 2.16 1.81 1.69 1.55 1.46 1.46 1.55 1.37 1.48 1.58 1.60 1.60 1.59 1.62 1.69 1.49 1.37 1.33 1.51 1.73 1.89 1.91 1.88 2.15 2.21 1.75 1.85 2.25
0.02 0.03 0.08 0.12 0.15 0.18 0.20 0.23 0.39 0.54 0.87 1.18 1.25 1.65 1.88 1.82 2.15 2.39 2.50 2.62 2.53 2.42 2.10 1.87 1.73 1.73 1.80 1.75 1.68 1.57 1.61 1.59 1.65 1.75 1.72 1.89 2.01 1.94 1.97 2.10 2.07 2.22 2.35 2.62 2.67 2.84 2.46 2.47 2.33
0.02 0.03 0.06 0.08 0.13 0.17 0.21 0.25 0.29 0.57 0.74 0.96 1.18 1.58 1.80 1.77 2.15 2.51 2.81 2.88 2.85 2.58 2.25 2.19 1.93 1.83 1.88 2.01 2.07 1.83 1.95 1.89 1.87 2.04 2.14 2.19 2.41 2.43 2.46 2.45 2.46 2.29 2.49 2.69 3.08 3.04 3.23 3.21 2.85
0.02 0.04 0.06 0.08 0.10 0.15 0.29 0.40 0.39 0.72 0.78 0.91 1.17 1.63 1.72 1.70 1.95 1.98 2.36 2.67 2.78 2.53 2.34 2.28 2.14 2.15 2.23 2.23 2.29 2.33 2.34 2.38 2.30 2.28 2.32 2.38 2.60 2.88 2.90 2.79 2.77 2.58 2.57 2.89 3.20 3.20 3.67 3.56 3.41
0.03 0.08 0.12 0.14 0.17 0.24 0.34 0.60 0.64 0.84 0.90 1.10 1.16 1.37 1.52 1.52 1.66 1.82 2.09 2.37 2.48 2.29 2.38 2.51 2.63 2.81 2.87 2.86 2.81 2.74 2.76 2.72 2.76 2.92 2.93 2.98 2.95 3.07 3.01 3.00 2.85 2.86 2.90 3.10 3.19 3.32 3.72 3.50 3.43
0.06 0.15 0.25 0.27 0.26 0.30 0.51 1.06 0.97 1.02 1.00 1.07 1.09 1.24 1.33 1.38 1.54 1.87 2.02 2.23 2.39 2.31 2.42 2.65 2.75 3.12 3.28 3.32 3.41 3.32 3.23 3.15 3.27 3.30 3.34 3.34 3.26 3.14 3.22 3.03 2.85 3.03 3.09 3.30 3.56 3.56 3.65 3.76 3.70
0.11 0.18 0.28 0.34 0.24 0.25 0.47 0.89 0.85 0.94 1.14 1.03 1.03 1.08 1.13 1.20 1.33 1.55 1.81 2.04 2.33 2.67 2.94 3.26 3.34 3.30 3.39 3.58 3.74 3.51 3.45 3.36 3.27 3.20 3.32 3.26 3.10 3.02 3.35 3.21 3.22 3.26 3.48 3.41 3.15 3.69 3.85 3.81 3.74
0.10 0.17 0.25 0.29 0.27 0.25 0.39 0.62 0.78 0.88 0.99 1.08 1.08 1.17 1.25 1.36 1.60 1.80 2.11 2.30 2.53 3.05 3.43 3.64 3.67 3.88 4.16 4.35 4.25 4.01 3.60 3.30 3.17 3.11 3.10 3.08 3.07 2.99 3.30 3.12 3.13 3.35 3.72 3.81 3.74 3.95 3.85 3.70 3.76
0.09 0.18 0.24 0.25 0.30 0.34 0.43 0.51 0.82 1.05 1.15 1.28 1.44 1.69 1.87 2.03 2.09 2.25 2.54 2.77 2.93 3.09 3.32 3.63 4.05 4.38 4.48 4.31 4.23 4.17 3.86 3.54 3.18 2.90 2.86 2.98 2.89 2.96 3.30 3.00 3.40 3.46 3.62 3.79 3.79 3.99 3.89 3.66 3.74
0.11 0.19 0.26 0.30 0.33 0.32 0.47 0.59 0.84 1.28 1.43 1.38 1.41 1.44 1.50 1.95 2.15 2.34 2.59 2.72 2.72 2.91 3.21 3.63 4.08 4.39 4.29 4.39 4.60 4.55 4.31 3.62 3.25 3.07 3.02 2.96 2.87 2.85 2.94 3.41 3.39 3.48 3.66 3.68 3.62 3.73 3.58 3.32 3.61
0.13 0.17 0.24 0.29 0.39 0.37 0.49 0.88 1.08 1.37 1.52 1.40 1.36 1.37 1.32 1.51 1.81 1.95 2.11 2.30 2.53 2.94 3.35 3.62 3.95 4.12 4.15 4.35 4.48 4.18 3.98 3.49 3.36 3.35 3.19 3.03 3.00 2.99 3.10 3.33 3.42 3.44 3.29 3.44 3.62 3.46 3.41 3.31 3.37
0.13 0.12 0.15 0.24 0.39 0.55 0.62 1.23 1.52 1.70 1.58 1.32 1.35 1.40 1.49 1.60 1.68 1.81 1.85 2.14 2.50 2.89 3.46 3.86 3.91 3.99 3.88 3.99 4.09 3.92 3.58 3.33 3.24 3.23 3.00 2.89 2.81 2.81 2.91 3.03 3.21 3.31 3.20 3.29 3.20 3.23 3.34 3.32 3.18
0.10 0.10 0.12 0.21 0.33 0.54 0.69 1.08 1.56 1.64 1.53 1.25 1.15 1.35 1.58 1.56 1.61 1.84 1.78 1.95 2.21 2.62 3.02 3.42 3.77 3.85 3.66 3.59 3.63 3.77 3.61 3.34 3.12 3.02 2.92 2.85 2.82 2.65 2.62 2.75 2.96 3.07 2.96 2.90 3.11 3.35 3.28 3.12 3.03
0.08 0.10 0.18 0.30 0.51 0.88 0.69 0.82 1.25 1.50 1.39 1.14 1.15 1.29 1.45 1.60 1.60 1.76 2.01 2.05 2.15 2.43 2.77 3.05 3.29 3.29 3.21 3.16 3.20 3.31 3.37 3.34 3.10 2.89 2.90 2.86 2.72 2.56 2.49 2.53 2.80 2.88 2.80 2.74 2.86 2.92 2.95 2.93 3.03
0.09 0.19 0.55 0.90 1.21 1.09 0.72 0.81 1.18 1.14 0.99 0.90 0.96 1.22 1.48 1.74 1.74 1.78 1.95 2.03 2.10 2.23 2.40 2.54 2.64 2.68 2.65 2.68 2.66 2.66 2.77 2.84 2.71 2.64 2.70 2.70 2.58 2.46 2.43 2.40 2.51 2.44 2.40 2.47 2.71 2.71 2.64 2.68 2.80
0.12 0.22 0.60 0.82 0.98 0.94 0.87 1.09 1.17 0.93 0.81 0.81 0.89 1.07 1.35 1.51 1.53 1.62 1.70 1.62 1.63 1.73 1.86 2.01 2.12 2.14 2.09 2.17 2.25 2.26 2.45 2.45 2.43 2.56 2.48 2.51 2.45 2.41 2.34 2.24 2.17 2.10 2.09 2.13 2.43 2.55 2.48 2.53 2.55
0.20 0.26 0.28 0.47 0.60 0.97 1.17 1.29 1.18 0.87 0.99 0.98 1.06 1.11 1.16 1.20 1.22 1.21 1.24 1.30 1.43 1.49 1.52 1.60 1.78 1.80 1.74 1.79 1.95 2.01 2.06 2.17 2.26 2.33 2.24 2.15 2.18 2.08 2.11 2.08 1.98 1.91 1.96 2.03 2.11 2.16 2.13 2.24 2.26
0.22 0.34 0.47 0.70 0.94 1.11 1.24 1.50 1.69 1.48 1.39 1.26 1.37 1.59 1.34 1.07 1.07 1.10 1.07 1.12 1.16 1.21 1.30 1.46 1.60 1.74 1.75 1.70 1.74 1.69 1.77 1.88 2.06 2.11 2.02 2.04 2.10 2.06 1.98 1.91 1.82 1.79 1.80 1.83 1.93 1.90 1.92 1.93 1.95
0.33 0.41 0.52 0.66 0.78 1.05 1.38 1.56 1.36 1.50 1.45 1.38 1.36 1.40 1.28 0.94 0.83 0.91 0.89 0.93 0.98 1.04 1.14 1.30 1.59 1.74 1.68 1.52 1.54 1.60 1.58 1.68 1.80 1.85 1.81 1.91 2.00 2.12 2.07 1.98 1.91 1.77 1.69 1.73 1.77 1.67 1.77 1.81 1.80
0.28 0.42 0.53 0.70 0.78 0.88 1.12 1.36 1.00 1.14 1.10 1.07 1.13 0.98 0.88 0.81 0.66 0.77 0.82 0.79 0.83 0.88 0.96 1.12 1.33 1.49 1.50 1.46 1.47 1.57 1.66 1.66 1.63 1.63 1.65 1.70 1.74 1.78 1.78 1.75 1.75 1.74 1.77 1.82 1.74 1.68 1.68 1.73 1.69